Location: Unspecified
(0.0000°N, 0.0000°E)
Time: 08:40:44
(UTC+00:00)

A-11 Canister half - Visible Passes

Search period start: 20 December 2014 00:00
Search period end: 30 December 2014 00:00
Orbit: 1518 x 1682 km, 47.2° (Epoch: 17 December)

Date Brightness Start Highest point End Pass type
(mag) Time Alt. Az. Time Alt. Az. Time Alt. Az.
20 Dec 10.4 20:58:20 10° S 21:02:34 20° SSE 21:02:34 20° SSE visible
20 Dec 11.2 23:00:45 10° SW 23:00:46 10° SW 23:00:46 10° SW visible
21 Dec 10.4 20:35:50 10° S 20:40:54 20° SE 20:40:54 20° SE visible
21 Dec 11.0 22:37:51 10° SW 22:39:06 15° SW 22:39:06 15° SW visible
22 Dec 10.4 20:13:24 10° S 20:19:18 19° SE 20:19:18 19° SE visible
22 Dec 10.7 22:14:58 10° SW 22:17:30 21° SW 22:17:30 21° SW visible
23 Dec 10.4 19:51:01 10° S 19:56:26 17° SE 19:57:44 16° SE visible
23 Dec 10.3 21:52:07 10° SW 21:55:56 29° SW 21:55:56 29° SW visible
24 Dec 10.5 19:28:44 10° SSE 19:33:30 15° SE 19:36:13 13° ESE visible
24 Dec 9.9 21:29:16 10° SW 21:34:26 39° SSW 21:34:26 39° SSW visible
25 Dec 10.6 19:06:35 10° SSE 19:10:33 13° SE 19:14:29 10° ESE visible
25 Dec 9.4 21:06:26 10° SW 21:12:58 51° SSW 21:12:58 51° SSW visible
26 Dec 10.6 18:44:42 10° SSE 18:47:35 12° SE 18:50:28 10° ESE visible
26 Dec 9.0 20:43:37 10° SSW 20:51:33 64° S 20:51:33 64° S visible
27 Dec 10.8 18:23:49 10° SE 18:24:37 10° SE 18:25:25 10° SE visible
27 Dec 8.9 20:20:49 10° SSW 20:29:58 65° SE 20:30:12 65° ESE visible
27 Dec 11.1 22:27:35 10° W 22:28:25 12° W 22:28:25 12° W visible
28 Dec 9.0 19:58:02 10° SSW 20:07:07 60° SE 20:08:53 52° E visible
28 Dec 10.7 22:04:22 10° WSW 22:07:07 18° W 22:07:07 18° W visible
29 Dec 9.1 19:35:16 10° SSW 19:44:15 55° SE 19:47:37 38° ENE visible
29 Dec 10.4 21:41:12 10° WSW 21:45:51 25° W 21:45:51 25° W visible
